Year,Month,Day,Hour,Minute,Value (Times are PST for temperature in C)
2016,07,24,00,00,17.60
2016,07,24,00,01,17.60
2016,07,24,00,02,17.60
2016,07,24,00,03,17.60
2016,07,24,00,04,17.60
2016,07,24,00,05,17.60
2016,07,24,00,06,17.60
2016,07,24,00,07,17.60
2016,07,24,00,08,17.60
2016,07,24,00,09,17.50
2016,07,24,00,10,17.50
2016,07,24,00,11,17.50
2016,07,24,00,12,17.40
2016,07,24,00,13,17.40
2016,07,24,00,14,17.30
2016,07,24,00,15,17.30
2016,07,24,00,16,17.30
2016,07,24,00,17,17.20
2016,07,24,00,18,17.10
2016,07,24,00,19,17.00
2016,07,24,00,20,16.90
2016,07,24,00,21,16.90
2016,07,24,00,22,16.80
2016,07,24,00,23,16.70
2016,07,24,00,24,16.60
2016,07,24,00,25,16.60
2016,07,24,00,26,16.50
2016,07,24,00,27,16.50
2016,07,24,00,28,16.40
2016,07,24,00,29,16.40
2016,07,24,00,30,16.40
2016,07,24,00,31,16.30
2016,07,24,00,32,16.30
2016,07,24,00,33,16.30
2016,07,24,00,34,16.30
2016,07,24,00,35,16.30
2016,07,24,00,36,16.20
2016,07,24,00,37,16.20
2016,07,24,00,38,16.20
2016,07,24,00,39,16.20
2016,07,24,00,40,16.20
2016,07,24,00,41,16.20
2016,07,24,00,42,16.20
2016,07,24,00,43,16.20
2016,07,24,00,44,16.10
2016,07,24,00,45,16.10
2016,07,24,00,46,16.10
2016,07,24,00,47,16.00
2016,07,24,00,48,16.00
2016,07,24,00,49,16.00
2016,07,24,00,50,15.90
2016,07,24,00,51,15.90
2016,07,24,00,52,15.90
2016,07,24,00,53,15.80
2016,07,24,00,54,15.80
2016,07,24,00,55,15.80
2016,07,24,00,56,15.80
2016,07,24,00,57,15.80
2016,07,24,00,58,15.70
2016,07,24,00,59,15.70
2016,07,24,01,00,15.70
2016,07,24,01,01,15.70
2016,07,24,01,02,15.70
2016,07,24,01,03,15.70
2016,07,24,01,04,15.70
2016,07,24,01,05,15.70
2016,07,24,01,06,15.60
2016,07,24,01,07,15.60
2016,07,24,01,08,15.60
2016,07,24,01,09,15.60
2016,07,24,01,10,15.60
2016,07,24,01,11,15.60
2016,07,24,01,12,15.60
2016,07,24,01,13,15.50
2016,07,24,01,14,15.50
2016,07,24,01,15,15.50
2016,07,24,01,16,15.40
2016,07,24,01,17,15.40
2016,07,24,01,18,15.40
2016,07,24,01,19,15.40
2016,07,24,01,20,15.40
2016,07,24,01,21,15.30
2016,07,24,01,22,15.30
2016,07,24,01,23,15.30
2016,07,24,01,24,15.30
2016,07,24,01,25,15.30
2016,07,24,01,26,15.30
2016,07,24,01,27,15.30
2016,07,24,01,28,15.30
2016,07,24,01,29,15.30
2016,07,24,01,30,15.30
2016,07,24,01,31,15.20
2016,07,24,01,32,15.20
2016,07,24,01,33,15.20
2016,07,24,01,34,15.20
2016,07,24,01,35,15.20
2016,07,24,01,36,15.20
2016,07,24,01,37,15.20
2016,07,24,01,38,15.20
2016,07,24,01,39,15.20
2016,07,24,01,40,15.20
2016,07,24,01,41,15.20
2016,07,24,01,42,15.10
2016,07,24,01,43,15.10
2016,07,24,01,44,15.10
2016,07,24,01,45,15.10
2016,07,24,01,46,15.10
2016,07,24,01,47,15.10
2016,07,24,01,48,15.10
2016,07,24,01,49,15.00
2016,07,24,01,50,15.00
2016,07,24,01,51,15.00
2016,07,24,01,52,15.00
2016,07,24,01,53,15.00
2016,07,24,01,54,15.00
2016,07,24,01,55,15.00
2016,07,24,01,56,15.00
2016,07,24,01,57,15.00
2016,07,24,01,58,15.00
2016,07,24,01,59,15.00
2016,07,24,02,00,15.00
2016,07,24,02,01,15.00
2016,07,24,02,02,15.00
2016,07,24,02,03,15.00
2016,07,24,02,04,15.00
2016,07,24,02,05,15.00
2016,07,24,02,06,15.00
2016,07,24,02,07,15.00
2016,07,24,02,08,15.00
2016,07,24,02,09,15.00
2016,07,24,02,10,15.00
2016,07,24,02,11,15.00
2016,07,24,02,12,15.00
2016,07,24,02,13,14.90
2016,07,24,02,14,14.90
2016,07,24,02,15,14.90
2016,07,24,02,16,14.90
2016,07,24,02,17,14.90
2016,07,24,02,18,14.90
2016,07,24,02,19,14.90
2016,07,24,02,20,14.90
2016,07,24,02,21,14.90
2016,07,24,02,22,14.90
2016,07,24,02,23,14.90
2016,07,24,02,24,14.90
2016,07,24,02,25,14.80
2016,07,24,02,26,14.80
2016,07,24,02,27,14.80
2016,07,24,02,28,14.80
2016,07,24,02,29,14.80
2016,07,24,02,30,14.80
2016,07,24,02,31,14.80
2016,07,24,02,32,14.70
2016,07,24,02,33,14.70
2016,07,24,02,34,14.70
2016,07,24,02,35,14.70
2016,07,24,02,36,14.70
2016,07,24,02,37,14.60
2016,07,24,02,38,14.60
2016,07,24,02,39,14.60
2016,07,24,02,40,14.60
2016,07,24,02,41,14.60
2016,07,24,02,42,14.60
2016,07,24,02,43,14.60
2016,07,24,02,44,14.60
2016,07,24,02,45,14.60
2016,07,24,02,46,14.60
2016,07,24,02,47,14.60
2016,07,24,02,48,14.60
2016,07,24,02,49,14.50
2016,07,24,02,50,14.50
2016,07,24,02,51,14.50
2016,07,24,02,52,14.50
2016,07,24,02,53,14.50
2016,07,24,02,54,14.50
2016,07,24,02,55,14.50
2016,07,24,02,56,14.50
2016,07,24,02,57,14.50
2016,07,24,02,58,14.40
2016,07,24,02,59,14.40
2016,07,24,03,00,14.40
2016,07,24,03,01,14.40
2016,07,24,03,02,14.40
2016,07,24,03,03,14.40
2016,07,24,03,04,14.40
2016,07,24,03,05,14.40
2016,07,24,03,06,14.40
2016,07,24,03,07,14.40
2016,07,24,03,08,14.40
2016,07,24,03,09,14.40
2016,07,24,03,10,14.30
2016,07,24,03,11,14.30
2016,07,24,03,12,14.30
2016,07,24,03,13,14.30
2016,07,24,03,14,14.30
2016,07,24,03,15,14.30
2016,07,24,03,16,14.30
2016,07,24,03,17,14.30
2016,07,24,03,18,14.30
2016,07,24,03,19,14.30
2016,07,24,03,20,14.30
2016,07,24,03,21,14.30
2016,07,24,03,22,14.20
2016,07,24,03,23,14.20
2016,07,24,03,24,14.20
2016,07,24,03,25,14.20
2016,07,24,03,26,14.20
2016,07,24,03,27,14.20
2016,07,24,03,28,14.20
2016,07,24,03,29,14.20
2016,07,24,03,30,14.20
2016,07,24,03,31,14.10
2016,07,24,03,32,14.10
2016,07,24,03,33,14.10
2016,07,24,03,34,14.10
2016,07,24,03,35,14.10
2016,07,24,03,36,14.10
2016,07,24,03,37,14.00
2016,07,24,03,38,14.00
2016,07,24,03,39,14.00
2016,07,24,03,40,14.00
2016,07,24,03,41,13.90
2016,07,24,03,42,13.90
2016,07,24,03,43,13.90
2016,07,24,03,44,13.90
2016,07,24,03,45,13.90
2016,07,24,03,46,13.80
2016,07,24,03,47,13.80
2016,07,24,03,48,13.80
2016,07,24,03,49,13.80
2016,07,24,03,50,13.80
2016,07,24,03,51,13.80
2016,07,24,03,52,13.80
2016,07,24,03,53,13.80
2016,07,24,03,54,13.80
2016,07,24,03,55,13.80
2016,07,24,03,56,13.80
2016,07,24,03,57,13.80
2016,07,24,03,58,13.80
2016,07,24,03,59,13.80
2016,07,24,04,00,13.80
2016,07,24,04,01,13.80
2016,07,24,04,02,13.80
2016,07,24,04,03,13.80
2016,07,24,04,04,13.80
2016,07,24,04,05,13.80
2016,07,24,04,06,13.80
2016,07,24,04,07,13.80
2016,07,24,04,08,13.80
2016,07,24,04,09,13.80
2016,07,24,04,10,13.80
2016,07,24,04,11,13.80
2016,07,24,04,12,13.80
2016,07,24,04,13,13.70
2016,07,24,04,14,13.70
2016,07,24,04,15,13.70
2016,07,24,04,16,13.70
2016,07,24,04,17,13.70
2016,07,24,04,18,13.70
2016,07,24,04,19,13.70
2016,07,24,04,20,13.70
2016,07,24,04,21,13.70
2016,07,24,04,22,13.70
2016,07,24,04,23,13.70
2016,07,24,04,24,13.70
2016,07,24,04,25,13.70
2016,07,24,04,26,13.70
2016,07,24,04,27,13.70
2016,07,24,04,28,13.70
2016,07,24,04,29,13.70
2016,07,24,04,30,13.70
2016,07,24,04,31,13.70
2016,07,24,04,32,13.70
2016,07,24,04,33,13.70
2016,07,24,04,34,13.70
2016,07,24,04,35,13.60
2016,07,24,04,36,13.60
2016,07,24,04,37,13.60
2016,07,24,04,38,13.60
2016,07,24,04,39,13.70
2016,07,24,04,40,13.60
2016,07,24,04,41,13.60
2016,07,24,04,42,13.60
2016,07,24,04,43,13.60
2016,07,24,04,44,13.60
2016,07,24,04,45,13.60
2016,07,24,04,46,13.60
2016,07,24,04,47,13.60
2016,07,24,04,48,13.60
2016,07,24,04,49,13.60
2016,07,24,04,50,13.60
2016,07,24,04,51,13.60
2016,07,24,04,52,13.60
2016,07,24,04,53,13.60
2016,07,24,04,54,13.60
2016,07,24,04,55,13.60
2016,07,24,04,56,13.70
2016,07,24,04,57,13.70
2016,07,24,04,58,13.70
2016,07,24,04,59,13.70
2016,07,24,05,00,13.70
2016,07,24,05,01,13.60
2016,07,24,05,02,13.60
2016,07,24,05,03,13.60
2016,07,24,05,04,13.60
2016,07,24,05,05,13.60
2016,07,24,05,06,13.60
2016,07,24,05,07,13.60
2016,07,24,05,08,13.60
2016,07,24,05,09,13.60
2016,07,24,05,10,13.60
2016,07,24,05,11,13.60
2016,07,24,05,12,13.60
2016,07,24,05,13,13.60
2016,07,24,05,14,13.60
2016,07,24,05,15,13.60
2016,07,24,05,16,13.60
2016,07,24,05,17,13.60
2016,07,24,05,18,13.60
2016,07,24,05,19,13.60
2016,07,24,05,20,13.60
2016,07,24,05,21,13.60
2016,07,24,05,22,13.60
2016,07,24,05,23,13.50
2016,07,24,05,24,13.50
2016,07,24,05,25,13.50
2016,07,24,05,26,13.50
2016,07,24,05,27,13.50
2016,07,24,05,28,13.50
2016,07,24,05,29,13.50
2016,07,24,05,30,13.40
2016,07,24,05,31,13.40
2016,07,24,05,32,13.40
2016,07,24,05,33,13.40
2016,07,24,05,34,13.40
2016,07,24,05,35,13.40
2016,07,24,05,36,13.40
2016,07,24,05,37,13.40
2016,07,24,05,38,13.40
2016,07,24,05,39,13.40
2016,07,24,05,40,13.40
2016,07,24,05,41,13.40
2016,07,24,05,42,13.40
2016,07,24,05,43,13.40
2016,07,24,05,44,13.40
2016,07,24,05,45,13.40
2016,07,24,05,46,13.40
2016,07,24,05,47,13.40
2016,07,24,05,48,13.40
2016,07,24,05,49,13.30
2016,07,24,05,50,13.30
2016,07,24,05,51,13.30
2016,07,24,05,52,13.30
2016,07,24,05,53,13.30
2016,07,24,05,54,13.30
2016,07,24,05,55,13.30
2016,07,24,05,56,13.30
2016,07,24,05,57,13.30
2016,07,24,05,58,13.30
2016,07,24,05,59,13.30
2016,07,24,06,00,13.30
2016,07,24,06,01,13.30
2016,07,24,06,02,13.30
2016,07,24,06,03,13.30
2016,07,24,06,04,13.30
2016,07,24,06,05,13.30
2016,07,24,06,06,13.30
2016,07,24,06,07,13.40
2016,07,24,06,08,13.40
2016,07,24,06,09,13.40
2016,07,24,06,10,13.40
2016,07,24,06,11,13.40
2016,07,24,06,12,13.40
2016,07,24,06,13,13.40
2016,07,24,06,14,13.50
2016,07,24,06,15,13.50
2016,07,24,06,16,13.60
2016,07,24,06,17,13.60
2016,07,24,06,18,13.60
2016,07,24,06,19,13.60
2016,07,24,06,20,13.70
2016,07,24,06,21,13.70
2016,07,24,06,22,13.70
2016,07,24,06,23,13.80
2016,07,24,06,24,13.80
2016,07,24,06,25,13.80
2016,07,24,06,26,13.80
2016,07,24,06,27,13.90
2016,07,24,06,28,13.90
2016,07,24,06,29,13.90
2016,07,24,06,30,14.00
2016,07,24,06,31,14.00
2016,07,24,06,32,14.00
2016,07,24,06,33,14.10
2016,07,24,06,34,14.10
2016,07,24,06,35,14.10
2016,07,24,06,36,14.20
2016,07,24,06,37,14.20
2016,07,24,06,38,14.20
2016,07,24,06,39,14.20
2016,07,24,06,40,14.30
2016,07,24,06,41,14.30
2016,07,24,06,42,14.30
2016,07,24,06,43,14.30
2016,07,24,06,44,14.40
2016,07,24,06,45,14.40
2016,07,24,06,46,14.40
2016,07,24,06,47,14.50
2016,07,24,06,48,14.50
2016,07,24,06,49,14.50
2016,07,24,06,50,14.60
2016,07,24,06,51,14.60
2016,07,24,06,52,14.60
2016,07,24,06,53,14.70
2016,07,24,06,54,14.70
2016,07,24,06,55,14.70
2016,07,24,06,56,14.80
2016,07,24,06,57,14.80
2016,07,24,06,58,14.90
2016,07,24,06,59,15.00
2016,07,24,07,00,15.00
2016,07,24,07,01,15.00
2016,07,24,07,02,15.00
2016,07,24,07,03,15.00
2016,07,24,07,04,15.10
2016,07,24,07,05,15.20
2016,07,24,07,06,15.30
2016,07,24,07,07,15.30
2016,07,24,07,08,15.40
2016,07,24,07,09,15.50
2016,07,24,07,10,15.60
2016,07,24,07,11,15.70
2016,07,24,07,12,15.80
2016,07,24,07,13,15.90
2016,07,24,07,14,15.90
2016,07,24,07,15,16.00
2016,07,24,07,16,16.10
2016,07,24,07,17,16.20
2016,07,24,07,18,16.30
2016,07,24,07,19,16.40
2016,07,24,07,20,16.60
2016,07,24,07,21,16.80
2016,07,24,07,22,16.90
2016,07,24,07,23,17.10
2016,07,24,07,24,17.20
2016,07,24,07,25,17.30
2016,07,24,07,26,17.30
2016,07,24,07,27,17.40
2016,07,24,07,28,17.50
2016,07,24,07,29,17.60
2016,07,24,07,30,17.70
2016,07,24,07,31,17.80
2016,07,24,07,32,17.90
2016,07,24,07,33,18.00
2016,07,24,07,34,18.10
2016,07,24,07,35,18.10
2016,07,24,07,36,18.20
2016,07,24,07,37,18.20
2016,07,24,07,38,18.20
2016,07,24,07,39,18.20
2016,07,24,07,40,18.20
2016,07,24,07,41,18.20
2016,07,24,07,42,18.20
2016,07,24,07,43,18.30
2016,07,24,07,44,18.30
2016,07,24,07,45,18.30
2016,07,24,07,46,18.30
2016,07,24,07,47,18.30
2016,07,24,07,48,18.40
2016,07,24,07,49,18.40
2016,07,24,07,50,18.40
2016,07,24,07,51,18.40
2016,07,24,07,52,18.40
2016,07,24,07,53,18.50
2016,07,24,07,54,18.50
2016,07,24,07,55,18.50
2016,07,24,07,56,18.60
2016,07,24,07,57,18.60
2016,07,24,07,58,18.70
2016,07,24,07,59,18.70
2016,07,24,08,00,18.80
2016,07,24,08,01,18.80
2016,07,24,08,02,18.90
2016,07,24,08,03,19.00
2016,07,24,08,04,19.10
2016,07,24,08,05,19.10
2016,07,24,08,06,19.10
2016,07,24,08,07,19.00
2016,07,24,08,08,19.00
2016,07,24,08,09,19.00
2016,07,24,08,10,19.10
2016,07,24,08,11,19.10
2016,07,24,08,12,19.20
2016,07,24,08,13,19.20
2016,07,24,08,14,19.30
2016,07,24,08,15,19.30
2016,07,24,08,16,19.30
2016,07,24,08,17,19.40
2016,07,24,08,18,19.50
2016,07,24,08,19,19.60
2016,07,24,08,20,19.60
2016,07,24,08,21,19.70
2016,07,24,08,22,19.70
2016,07,24,08,23,19.70
2016,07,24,08,24,19.80
2016,07,24,08,25,19.80
2016,07,24,08,26,19.80
2016,07,24,08,27,19.80
2016,07,24,08,28,19.80
2016,07,24,08,29,19.80
2016,07,24,08,30,19.80
2016,07,24,08,31,19.80
2016,07,24,08,32,19.90
2016,07,24,08,33,19.90
2016,07,24,08,34,19.90
2016,07,24,08,35,19.90
2016,07,24,08,36,19.90
2016,07,24,08,37,19.90
2016,07,24,08,38,19.90
2016,07,24,08,39,19.90
2016,07,24,08,40,19.90
2016,07,24,08,41,19.80
2016,07,24,08,42,19.80
2016,07,24,08,43,19.80
2016,07,24,08,44,19.70
2016,07,24,08,45,19.70
2016,07,24,08,46,19.70
2016,07,24,08,47,19.70
2016,07,24,08,48,19.60
2016,07,24,08,49,19.60
2016,07,24,08,50,19.60
2016,07,24,08,51,19.60
2016,07,24,08,52,19.50
2016,07,24,08,53,19.50
2016,07,24,08,54,19.40
2016,07,24,08,55,19.40
2016,07,24,08,56,19.40
2016,07,24,08,57,19.40
2016,07,24,08,58,19.40
2016,07,24,08,59,19.40
2016,07,24,09,00,19.40
2016,07,24,09,01,19.50
2016,07,24,09,02,19.50
2016,07,24,09,03,19.50
2016,07,24,09,04,19.60
2016,07,24,09,05,19.60
2016,07,24,09,06,19.60
2016,07,24,09,07,19.60
2016,07,24,09,08,19.60
2016,07,24,09,09,19.60
2016,07,24,09,10,19.60
2016,07,24,09,11,19.70
2016,07,24,09,12,19.70
2016,07,24,09,13,19.70
2016,07,24,09,14,19.80
2016,07,24,09,15,19.80
2016,07,24,09,16,19.80
2016,07,24,09,17,19.90
2016,07,24,09,18,19.90
2016,07,24,09,19,19.90
2016,07,24,09,20,19.90
2016,07,24,09,21,19.90
2016,07,24,09,22,19.90
2016,07,24,09,23,19.90
2016,07,24,09,24,19.90
2016,07,24,09,25,20.00
2016,07,24,09,26,20.00
2016,07,24,09,27,20.00
2016,07,24,09,28,20.00
2016,07,24,09,29,20.00
2016,07,24,09,30,20.10
2016,07,24,09,31,20.10
2016,07,24,09,32,20.10
2016,07,24,09,33,20.10
2016,07,24,09,34,20.10
2016,07,24,09,35,20.00
2016,07,24,09,36,20.00
2016,07,24,09,37,19.90
2016,07,24,09,38,19.90
2016,07,24,09,39,19.90
2016,07,24,09,40,19.80
2016,07,24,09,41,19.80
2016,07,24,09,42,19.80
2016,07,24,09,43,19.80
2016,07,24,09,44,19.70
2016,07,24,09,45,19.70
2016,07,24,09,46,19.70
2016,07,24,09,47,19.70
2016,07,24,09,48,19.70
2016,07,24,09,49,19.70
2016,07,24,09,50,19.60
2016,07,24,09,51,19.60
2016,07,24,09,52,19.60
2016,07,24,09,53,19.60
2016,07,24,09,54,19.60
2016,07,24,09,55,19.60
2016,07,24,09,56,19.60
2016,07,24,09,57,19.60
2016,07,24,09,58,19.60
2016,07,24,09,59,19.50
2016,07,24,10,00,19.50
2016,07,24,10,01,19.50
2016,07,24,10,02,19.50
2016,07,24,10,03,19.40
2016,07,24,10,04,19.40
2016,07,24,10,05,19.40
2016,07,24,10,06,19.40
2016,07,24,10,07,19.40
2016,07,24,10,08,19.40
2016,07,24,10,09,19.40
2016,07,24,10,10,19.40
2016,07,24,10,11,19.40
2016,07,24,10,12,19.40
2016,07,24,10,13,19.40
2016,07,24,10,14,19.40
2016,07,24,10,15,19.50
2016,07,24,10,16,19.40
2016,07,24,10,17,19.40
2016,07,24,10,18,19.40
2016,07,24,10,19,19.40
2016,07,24,10,20,19.40
2016,07,24,10,21,19.40
2016,07,24,10,22,19.30
2016,07,24,10,23,19.30
2016,07,24,10,24,19.30
2016,07,24,10,25,19.30
2016,07,24,10,26,19.30
2016,07,24,10,27,19.30
2016,07,24,10,28,19.30
2016,07,24,10,29,19.40
2016,07,24,10,30,19.40
2016,07,24,10,31,19.50
2016,07,24,10,32,19.50
2016,07,24,10,33,19.50
2016,07,24,10,34,19.60
2016,07,24,10,35,19.70
2016,07,24,10,36,19.70
2016,07,24,10,37,19.80
2016,07,24,10,38,19.90
2016,07,24,10,39,19.90
2016,07,24,10,40,20.00
2016,07,24,10,41,20.10
2016,07,24,10,42,20.10
2016,07,24,10,43,20.20
2016,07,24,10,44,20.30
2016,07,24,10,45,20.30
2016,07,24,10,46,20.30
2016,07,24,10,47,20.40
2016,07,24,10,48,20.40
2016,07,24,10,49,20.40
2016,07,24,10,50,20.50
2016,07,24,10,51,20.50
2016,07,24,10,52,20.60
2016,07,24,10,53,20.60
2016,07,24,10,54,20.50
2016,07,24,10,55,20.40
2016,07,24,10,56,20.30
2016,07,24,10,57,20.20
2016,07,24,10,58,20.20
2016,07,24,10,59,20.10
2016,07,24,11,00,20.10
2016,07,24,11,01,20.10
2016,07,24,11,02,20.10
2016,07,24,11,03,20.10
2016,07,24,11,04,20.10
2016,07,24,11,05,20.10
2016,07,24,11,06,20.10
2016,07,24,11,07,20.10
2016,07,24,11,08,20.10
2016,07,24,11,09,20.10
2016,07,24,11,10,20.10
2016,07,24,11,11,20.20
2016,07,24,11,12,20.20
2016,07,24,11,13,20.20
2016,07,24,11,14,20.20
2016,07,24,11,15,20.10
2016,07,24,11,16,20.10
2016,07,24,11,17,20.10
2016,07,24,11,18,20.10
2016,07,24,11,19,20.10
2016,07,24,11,20,20.20
2016,07,24,11,21,20.20
2016,07,24,11,22,20.20
2016,07,24,11,23,20.20
2016,07,24,11,24,20.30
2016,07,24,11,25,20.40
2016,07,24,11,26,20.50
2016,07,24,11,27,20.60
2016,07,24,11,28,20.70
2016,07,24,11,29,20.70
2016,07,24,11,30,20.80
2016,07,24,11,31,20.90
2016,07,24,11,32,21.00
2016,07,24,11,33,21.10
2016,07,24,11,34,21.20
2016,07,24,11,35,21.30
2016,07,24,11,36,21.40
2016,07,24,11,37,21.40
2016,07,24,11,38,21.50
2016,07,24,11,39,21.60
2016,07,24,11,40,21.60
2016,07,24,11,41,21.70
2016,07,24,11,42,21.80
2016,07,24,11,43,21.80
2016,07,24,11,44,21.90
2016,07,24,11,45,22.00
2016,07,24,11,46,22.20
2016,07,24,11,47,22.30
2016,07,24,11,48,22.30
2016,07,24,11,49,22.40
2016,07,24,11,50,22.40
2016,07,24,11,51,22.50
2016,07,24,11,52,22.60
2016,07,24,11,53,22.70
2016,07,24,11,54,22.70
2016,07,24,11,55,22.70
2016,07,24,11,56,22.60
2016,07,24,11,57,22.50
2016,07,24,11,58,22.50
2016,07,24,11,59,22.40
2016,07,24,12,00,22.40
2016,07,24,12,01,22.40
2016,07,24,12,02,22.30
2016,07,24,12,03,22.30
2016,07,24,12,04,22.30
2016,07,24,12,05,22.30
2016,07,24,12,06,22.30
2016,07,24,12,07,22.30
2016,07,24,12,08,22.30
2016,07,24,12,09,22.30
2016,07,24,12,10,22.30
2016,07,24,12,11,22.30
2016,07,24,12,12,22.30
2016,07,24,12,13,22.30
2016,07,24,12,14,22.30
2016,07,24,12,15,22.20
2016,07,24,12,16,22.20
2016,07,24,12,17,22.20
2016,07,24,12,18,22.10
2016,07,24,12,19,22.10
2016,07,24,12,20,22.10
2016,07,24,12,21,22.10
2016,07,24,12,22,22.00
2016,07,24,12,23,22.00
2016,07,24,12,24,21.90
2016,07,24,12,25,21.90
2016,07,24,12,26,21.80
2016,07,24,12,27,21.80
2016,07,24,12,28,21.80
2016,07,24,12,29,21.80
2016,07,24,12,30,21.80
2016,07,24,12,31,21.80
2016,07,24,12,32,21.80
2016,07,24,12,33,21.80
2016,07,24,12,34,21.80
2016,07,24,12,35,21.80
2016,07,24,12,36,21.80
2016,07,24,12,37,21.80
2016,07,24,12,38,21.80
2016,07,24,12,39,21.80
2016,07,24,12,40,21.80
2016,07,24,12,41,21.80
2016,07,24,12,42,21.80
2016,07,24,12,43,21.80
2016,07,24,12,44,21.70
2016,07,24,12,45,21.70
2016,07,24,12,46,21.70
2016,07,24,12,47,21.70
2016,07,24,12,48,21.70
2016,07,24,12,49,21.70
2016,07,24,12,50,21.70
2016,07,24,12,51,21.70
2016,07,24,12,52,21.70
2016,07,24,12,53,21.70
2016,07,24,12,54,21.80
2016,07,24,12,55,21.80
2016,07,24,12,56,21.80
2016,07,24,12,57,21.80
2016,07,24,12,58,21.80
2016,07,24,12,59,21.80
2016,07,24,13,00,21.90
2016,07,24,13,01,21.90
2016,07,24,13,02,21.90
2016,07,24,13,03,22.00
2016,07,24,13,04,22.00
2016,07,24,13,05,22.00
2016,07,24,13,06,22.00
2016,07,24,13,07,22.00
2016,07,24,13,08,22.00
2016,07,24,13,09,21.90
2016,07,24,13,10,21.90
2016,07,24,13,11,22.00
2016,07,24,13,12,22.00
2016,07,24,13,13,22.00
2016,07,24,13,14,22.10
2016,07,24,13,15,22.10
2016,07,24,13,16,22.10
2016,07,24,13,17,22.10
2016,07,24,13,18,22.10
2016,07,24,13,19,22.10
2016,07,24,13,20,22.10
2016,07,24,13,21,22.10
2016,07,24,13,22,22.00
2016,07,24,13,23,21.90
2016,07,24,13,24,22.00
2016,07,24,13,25,22.00
2016,07,24,13,26,22.00
2016,07,24,13,27,22.00
2016,07,24,13,28,22.00
2016,07,24,13,29,22.00
2016,07,24,13,30,22.00
2016,07,24,13,31,22.00
2016,07,24,13,32,22.10
2016,07,24,13,33,22.10
2016,07,24,13,34,22.10
2016,07,24,13,35,22.20
2016,07,24,13,36,22.20
2016,07,24,13,37,22.30
2016,07,24,13,38,22.30
2016,07,24,13,39,22.30
2016,07,24,13,40,22.30
2016,07,24,13,41,22.30
2016,07,24,13,42,22.40
2016,07,24,13,43,22.40
2016,07,24,13,44,22.50
2016,07,24,13,45,22.50
2016,07,24,13,46,22.50
2016,07,24,13,47,22.60
2016,07,24,13,48,22.60
2016,07,24,13,49,22.60
2016,07,24,13,50,22.60
2016,07,24,13,51,22.60
2016,07,24,13,52,22.70
2016,07,24,13,53,22.70
2016,07,24,13,54,22.80
2016,07,24,13,55,22.80
2016,07,24,13,56,22.90
2016,07,24,13,57,23.00
2016,07,24,13,58,23.00
2016,07,24,13,59,23.10
2016,07,24,14,00,23.20
2016,07,24,14,01,23.20
2016,07,24,14,02,23.20
2016,07,24,14,03,23.20
2016,07,24,14,04,23.30
2016,07,24,14,05,23.40
2016,07,24,14,06,23.40
2016,07,24,14,07,23.50
2016,07,24,14,08,23.50
2016,07,24,14,09,23.60
2016,07,24,14,10,23.60
2016,07,24,14,11,23.60
2016,07,24,14,12,23.70
2016,07,24,14,13,23.70
2016,07,24,14,14,23.70
2016,07,24,14,15,23.70
2016,07,24,14,16,23.70
2016,07,24,14,17,23.60
2016,07,24,14,18,23.60
2016,07,24,14,19,23.50
2016,07,24,14,20,23.50
2016,07,24,14,21,23.50
2016,07,24,14,22,23.50
2016,07,24,14,23,23.60
2016,07,24,14,24,23.60
2016,07,24,14,25,23.60
2016,07,24,14,26,23.60
2016,07,24,14,27,23.60
2016,07,24,14,28,23.50
2016,07,24,14,29,23.40
2016,07,24,14,30,23.40
2016,07,24,14,31,23.30
2016,07,24,14,32,23.20
2016,07,24,14,33,23.30
2016,07,24,14,34,23.30
2016,07,24,14,35,23.30
2016,07,24,14,36,23.40
2016,07,24,14,37,23.50
2016,07,24,14,38,23.50
2016,07,24,14,39,23.40
2016,07,24,14,40,23.40
2016,07,24,14,41,23.40
2016,07,24,14,42,23.50
2016,07,24,14,43,23.50
2016,07,24,14,44,23.60
2016,07,24,14,45,23.60
2016,07,24,14,46,23.60
2016,07,24,14,47,23.60
2016,07,24,14,48,23.60
2016,07,24,14,49,23.60
2016,07,24,14,50,23.60
2016,07,24,14,51,23.60
2016,07,24,14,52,23.60
2016,07,24,14,53,23.60
2016,07,24,14,54,23.60
2016,07,24,14,55,23.60
2016,07,24,14,56,23.60
2016,07,24,14,57,23.60
2016,07,24,14,58,23.60
2016,07,24,14,59,23.60
2016,07,24,15,00,23.70
2016,07,24,15,01,23.70
2016,07,24,15,02,23.80
2016,07,24,15,03,23.80
2016,07,24,15,04,23.80
2016,07,24,15,05,23.80
2016,07,24,15,06,23.70
2016,07,24,15,07,23.70
2016,07,24,15,08,23.70
2016,07,24,15,09,23.70
2016,07,24,15,10,23.70
2016,07,24,15,11,23.70
2016,07,24,15,12,23.80
2016,07,24,15,13,23.70
2016,07,24,15,14,23.70
2016,07,24,15,15,23.70
2016,07,24,15,16,23.70
2016,07,24,15,17,23.70
2016,07,24,15,18,23.80
2016,07,24,15,19,23.80
2016,07,24,15,20,23.80
2016,07,24,15,21,23.80
2016,07,24,15,22,23.90
2016,07,24,15,23,23.90
2016,07,24,15,24,24.00
2016,07,24,15,25,24.00
2016,07,24,15,26,24.10
2016,07,24,15,27,24.10
2016,07,24,15,28,24.10
2016,07,24,15,29,24.20
2016,07,24,15,30,24.20
2016,07,24,15,31,24.20
2016,07,24,15,32,24.20
2016,07,24,15,33,24.20
2016,07,24,15,34,24.10
2016,07,24,15,35,24.10
2016,07,24,15,36,24.00
2016,07,24,15,37,23.90
2016,07,24,15,38,23.90
2016,07,24,15,39,23.90
2016,07,24,15,40,23.90
2016,07,24,15,41,23.90
2016,07,24,15,42,23.80
2016,07,24,15,43,23.80
2016,07,24,15,44,23.70
2016,07,24,15,45,23.70
2016,07,24,15,46,23.70
2016,07,24,15,47,23.60
2016,07,24,15,48,23.60
2016,07,24,15,49,23.60
2016,07,24,15,50,23.60
2016,07,24,15,51,23.60
2016,07,24,15,52,23.70
2016,07,24,15,53,23.70
2016,07,24,15,54,23.80
2016,07,24,15,55,23.80
2016,07,24,15,56,23.90
2016,07,24,15,57,24.00
2016,07,24,15,58,24.00
2016,07,24,15,59,24.10
2016,07,24,16,00,24.10
2016,07,24,16,01,24.10
2016,07,24,16,02,24.10
2016,07,24,16,03,24.10
2016,07,24,16,04,24.10
2016,07,24,16,05,24.00
2016,07,24,16,06,24.00
2016,07,24,16,07,23.90
2016,07,24,16,08,23.90
2016,07,24,16,09,23.80
2016,07,24,16,10,23.80
2016,07,24,16,11,23.70
2016,07,24,16,12,23.60
2016,07,24,16,13,23.60
2016,07,24,16,14,23.50
2016,07,24,16,15,23.40
2016,07,24,16,16,23.40
2016,07,24,16,17,23.40
2016,07,24,16,18,23.40
2016,07,24,16,19,23.40
2016,07,24,16,20,23.40
2016,07,24,16,21,23.50
2016,07,24,16,22,23.50
2016,07,24,16,23,23.60
2016,07,24,16,24,23.60
2016,07,24,16,25,23.60
2016,07,24,16,26,23.60
2016,07,24,16,27,23.70
2016,07,24,16,28,23.70
2016,07,24,16,29,23.70
2016,07,24,16,30,23.70
2016,07,24,16,31,23.80
2016,07,24,16,32,23.80
2016,07,24,16,33,23.80
2016,07,24,16,34,23.90
2016,07,24,16,35,24.00
2016,07,24,16,36,24.10
2016,07,24,16,37,24.10
2016,07,24,16,38,24.20
2016,07,24,16,39,24.20
2016,07,24,16,40,24.20
2016,07,24,16,41,24.20
2016,07,24,16,42,24.20
2016,07,24,16,43,24.30
2016,07,24,16,44,24.30
2016,07,24,16,45,24.30
2016,07,24,16,46,24.20
2016,07,24,16,47,24.30
2016,07,24,16,48,24.30
2016,07,24,16,49,24.30
2016,07,24,16,50,24.30
2016,07,24,16,51,24.30
2016,07,24,16,52,24.30
2016,07,24,16,53,24.30
2016,07,24,16,54,24.30
2016,07,24,16,55,24.30
2016,07,24,16,56,24.30
2016,07,24,16,57,24.30
2016,07,24,16,58,24.30
2016,07,24,16,59,24.30
2016,07,24,17,00,24.30
2016,07,24,17,01,24.30
2016,07,24,17,02,24.40
2016,07,24,17,03,24.40
2016,07,24,17,04,24.40
2016,07,24,17,05,24.30
2016,07,24,17,06,24.30
2016,07,24,17,07,24.30
2016,07,24,17,08,24.30
2016,07,24,17,09,24.20
2016,07,24,17,10,24.20
2016,07,24,17,11,24.20
2016,07,24,17,12,24.20
2016,07,24,17,13,24.20
2016,07,24,17,14,24.10
2016,07,24,17,15,24.10
2016,07,24,17,16,24.10
2016,07,24,17,17,24.10
2016,07,24,17,18,24.10
2016,07,24,17,19,24.10